Flag for U.S.A. Weather past 2 weeks in Raleigh, North Carolina, U.S.A.

Now
84 °F

Scattered clouds.


Feels Like: 85 °F
Forecast: 67 / 86 °F
Wind: 6 mph from South

Location: Raleigh-Durham International Airport

Current Time: May 30, 2015 at 7:27:39 PM

Latest Report: May 30, 2015 at 6:51 PM


Visibility: 10 mi

Pressure: 30.08 "Hg

Humidity: 49%

Dew point: 63 °F

Location of RaleighLocation

Historic Weather in Raleigh — Graph

°F

Raleigh temperature yesterday

Maximum temperature yesterday: 86 °F (at 2:51 PM)
Minimum temperature yesterday: 68 °F (at 5:51 AM)
Average temperature yesterday: 76 °F

Past Weeks' High & Low Weather Summary

 TemperatureHumidityPressure
High90 °F (May 18, 2:51 PM)97% (May 19, 11:51 PM)30.45 "Hg (May 19, 11:51 PM)
Low49 °F (May 23, 5:51 AM)31% (May 23, 4:51 PM)29.84 "Hg (May 21, 12:56 PM)
Average73 °F69%30.17 "Hg
* Reported May 15 5:51 PM — May 30 5:51 PM, Raleigh, Weather by CustomWeather, © 2015

Note: Actual official high and low records may vary slightly from our data, if they occured in-between our weather recording intervals... More about our weather records

Advertising

Raleigh weather history for previous 24 hours

 ConditionsComfort  
Time TempWeatherWind HumidityBarometerVisibility
5:51 PM
Sat, May 30
84 °FScattered clouds.7 mph51%30.09 "Hg10 mi
4:51 PM87 °FScattered clouds.8 mph46%30.10 "Hg10 mi
3:51 PM86 °FPartly sunny.No wind49%30.12 "Hg10 mi
2:51 PM84 °FPartly sunny.6 mph53%30.15 "Hg10 mi
1:51 PM83 °FPartly sunny.5 mph59%30.17 "Hg10 mi
12:51 PM81 °FPartly sunny.6 mph60%30.19 "Hg10 mi
11:51 AM80 °FPartly sunny.5 mph67%30.20 "Hg10 mi
10:51 AM79 °FPartly sunny.3 mph67%30.22 "Hg10 mi
9:51 AM78 °FPartly sunny.3 mph71%30.22 "Hg10 mi
8:51 AM74 °FBroken clouds.5 mph82%30.23 "Hg10 mi
7:51 AM70 °FPartly sunny.3 mph90%30.23 "Hg10 mi
6:51 AM68 °FPassing clouds.5 mph93%30.21 "Hg10 mi
5:51 AM67 °FPassing clouds.No wind90%30.19 "Hg10 mi
4:51 AM66 °FPassing clouds.No wind93%30.18 "Hg10 mi
3:51 AM69 °FPassing clouds.No wind87%30.17 "Hg10 mi
2:51 AM70 °FPassing clouds.No wind84%30.18 "Hg10 mi
1:51 AM71 °FPassing clouds.3 mph81%30.18 "Hg10 mi
12:51 AM71 °FPassing clouds.6 mph78%30.19 "Hg10 mi
11:51 PM
Fri, May 29
73 °FPassing clouds.6 mph71%30.19 "Hg10 mi
10:51 PM72 °FPassing clouds.7 mph64%30.19 "Hg10 mi
9:51 PM71 °FPassing clouds.No wind66%30.18 "Hg10 mi
8:51 PM71 °FScattered clouds.No wind68%30.16 "Hg10 mi
7:51 PM81 °FScattered clouds.5 mph41%30.15 "Hg10 mi
Weather by CustomWeather, © 2015

See weather overviewHow to use our weather pages